Regional Weather Roundup
Issued by NWS

Home | Current Version | Previous Version | Text Only | Print | Product List | Glossary On
Versions: 1 2 3 4 5 6 7 8 9 10 11 12 13 14 15 16 17 18 19 20 21 22 23 24 25 26 27 28 29 30 31 32 33 34 35 36 37 38 39 40 41 42 43 44 45 46 47 48 49 50
000
ASUS43 KOAX 310302
RWRNE

WEATHER ROUNDUP FOR NEBRASKA
NATIONAL WEATHER SERVICE OMAHA NE
1000 PM CDT MON MAY 30 2016

NOTES: SATELLITE DATA IS BEING USED TO AUGMENT CLOUD COVER ABOVE
       12000 FEET.
       "FAIR" INDICATES FEW OR NO CLOUDS BELOW 12,000 FEET WITH NO
       SIGNIFICANT WEATHER AND/OR OBSTRUCTIONS TO VISIBILITY.

  * THESE STATIONS DO NOT REPORT WEATHER SUCH AS RAIN...SNOW OR FOG.

NEZ001>004-019>022-054>056-310400-
NEBRASKA PANHANDLE

CITY           SKY/WX    TMP DP  RH WIND       PRES   REMARKS
SCOTTSBLUFF    CLOUDY    59  49  69 N16G23    29.97R
ALLIANCE       CLOUDY    60  44  55 N35G46    29.94R
CHADRON        LGT RAIN  59  47  64 NE18      29.92F
SIDNEY         CLOUDY    55  50  83 W9        29.96R
$$

NEZ057>060-069>072-079>082-310400-
SOUTHWEST NEBRASKA

CITY           SKY/WX    TMP DP  RH WIND       PRES   REMARKS
NORTH PLATTE   LGT RAIN  60  55  83 E14       29.89F
IMPERIAL       CLOUDY    61  53  75 SW8       29.92R
LEXINGTON      RAIN      61  56  82 W20G31    29.98R
MCCOOK         CLOUDY    59  55  87 NE7G18    29.91F
$$

NEZ005>010-023>029-035>040-094-310400-
NORTH CENTRAL NEBRASKA

CITY           SKY/WX    TMP DP  RH WIND       PRES   REMARKS
VALENTINE      CLOUDY    61  54  77 NW9       29.93R
AINSWORTH      CLOUDY    60  56  85 W16       29.91R
BROKEN BOW     RAIN      66  52  60 NW25G39   29.89R
ORD            CLOUDY    70  59  68 SW12      29.84R
$$

NEZ041-046>049-061>064-073>077-083>087-310400-
SOUTH CENTRAL NEBRASKA

CITY           SKY/WX    TMP DP  RH WIND       PRES   REMARKS
GRAND ISLAND   CLOUDY    72  60  66 S9        29.88R
HASTINGS       CLOUDY    73  58  59 S8        29.87R
KEARNEY *      CLOUDY    72  52  49 W25G35    29.91R
YORK           CLOUDY    73  61  64 S9        29.88R
$$

NEZ011>018-030>034-042>045-310400-
NORTHEAST NEBRASKA

CITY           SKY/WX    TMP DP  RH WIND       PRES   REMARKS
NORFOLK        PTCLDY    75  57  53 S12       29.85R
ALBION         CLOUDY    73  58  59 S8        29.86R
BLAIR          PTCLDY    68  60  74 SE12G17   29.89R
FREMONT        CLEAR     69  59  70 SE15      29.88R
TEKAMAH        CLEAR     68  59  73 S16       29.86S
$$

NEZ050>053-065>068-078-088>093-310400-
SOUTHEAST NEBRASKA

CITY           SKY/WX    TMP DP  RH WIND       PRES   REMARKS
LINCOLN        CLOUDY    73  63  70 SE10      29.89R
OMAHA EPPLEY   MOCLDY    67  61  81 SE12      29.88F
FALLS CITY     LGT RAIN  71  63  75 SE7       29.93R
PLATTSMOUTH    CLOUDY    69  63  81 SE15G23   29.91R
$$

NEZ044-045-051>053-067-310400-
OMAHA AREA

CITY           SKY/WX    TMP DP  RH WIND       PRES   REMARKS
OMAHA EPPLEY   MOCLDY    67  61  81 SE12      29.88F
BLAIR          PTCLDY    68  60  74 SE12G17   29.89R
FREMONT        CLEAR     69  59  70 SE15      29.88R
PLATTSMOUTH    CLOUDY    69  63  81 SE15G23   29.91R
$$




USA.gov is the U.S. government's official web portal to all federal, state and local government web resources and services.